SL-14 DEB, 45295

Orbit data source: Space-Track

SL-14 DEB, 45295 is space debris in LEO originally from a launch on Thu, 15 Aug 1991 UTC launched from the Plesetsk Missile And Space Complex (PKMTR). Debris objects in space refer to the collection of defunct objects orbiting the Earth. Examples of debris include non-operational satellites, rocket bodies, and fragments generated from explosions, collisions, or faulty payload assembly.

Loading next visibility...
Identifier
45295, 1991-056AH
Orbit
LEO
Last TLE update
9 hours ago
Origin
Manufacturer
Unknown
Mission
Spacecraft
Bus & Motor
Unknown
Mass
Unknown
Launch date (UTC)
1991-08-15 (34 years ago)
Launch vehicle
Unknown
Launch site
Plesetsk Missile And Space Complex (PKMTR)
Object type
Payload
Rocket body
Debris
Shape & HBR
Unknown
Radar Cross Section
Small (<0.1 m²)

Expand to show TLE details & history

TLE from 9 hours ago
0 SL-14 DEB
1 45295U 91056AH  25199.32936377  .00000846  00000-0  15304-2 0  9995
2 45295  82.5718 330.9398 0078025   6.6590 353.5562 13.38944684263056
Epoch: 2025-07-18T07:54Z
TLE epoch observation values (Epoch: 2025-07-18T07:54:17.029Z)
Latitude
-0.00004°
Longitude
-84.01354°
Altitude
1,057.965 km
Speed
7.351 km/s
True Right ascension
22h 03m 45s
True Declination
0° 00' 00"
Sunlit
Object was in full shadow at epoch
Visualization orbit readout
Latitude
-36.58038°
Longitude
-89.80564°
Altitude
1,083.635 km
Speed
7.33 km/s
Apparent Right ascension
19h 48m 28s
Apparent Declination
-42° 24' 45"
Sunlit
Object is in full shadow
Visualization observer readout
Local Sidereal Time
05:27:57
Azimuth
253.005° W
Elevation
-63.627°
Doppler factor
1
Orbital elements
Apogee altitude
1,168.855 km
Perigee altitude
1,051.996 km
Semi-major axis
7,488.563 km
Eccentricity
0.0078
Inclination
82.5718°
RAAN
330.9398°
Arg. of periapsis
6.659°
True anomaly
353.45487°
Mean anomaly
353.5562°
Eccentric anomaly
353.50564°
Mean motion
3.34923 °/min
Orbital period
107.49 mins
BSTAR
0.0015304
Loading maneuver chart data...
Loading SW <> Apogee altitude chart data...
Loading historical data...
Loading historical data...
Loading historical data...
Loading historical data...
Loading historical data...
Loading historical data...
Loading historical data...
|